Regional Weather Roundup
Issued by NWS

Home | Current Version | Previous Version | Text Only | Print | Product List | Glossary On
Versions: 1 2 3 4 5 6 7 8 9 10 11 12 13 14 15 16 17 18 19 20 21 22 23 24 25 26 27 28 29 30 31 32 33 34 35 36 37 38 39 40 41 42 43 44 45 46 47 48 49 50
000
ASUS43 KLMK 262010
RWRKY
KENTUCKY REGIONAL WEATHER ROUNDUP
NATIONAL WEATHER SERVICE LOUISVILLE KY
300 PM EST MON JAN 26 2015

NOTE "FAIR" INDICATES FEW OR NO CLOUDS BELOW 12,000 FEET
WITH NO SIGNIFICANT WEATHER AND/OR OBSTRUCTIONS TO VISIBILITY.

KYZ001>023-026-027-061>063-070>075-262100-
WESTERN AND SOUTH CENTRAL KENTUCKY

CITY           SKY/WX    TMP DP  RH WIND       PRES   REMARKS
PADUCAH        CLOUDY    36  27  69 SW14      29.95F WCI  27
HENDERSON      CLOUDY    32  21  64 W7        29.96F WCI  26
OWENSBORO      CLOUDY    31  26  81 NW8       29.96F WCI  24
HOPKINSVILLE   PTSUNNY   35  26  70 W9        29.95F WCI  28
BOWLING GREEN  CLOUDY    33  26  75 W7        29.95F WCI  27
GLASGOW        CLOUDY    32  26  80 W7        29.93F WCI  25
$$

KYZ024-025-028>034-038-045-046-053-262100-
NORTH CENTRAL KENTUCKY

CITY           SKY/WX    TMP DP  RH WIND       PRES   REMARKS
LOUISVILLE/SDF CLOUDY    32  23  69 W10       29.92F WCI  24
LOUISVILLE/LOU CLOUDY    31  21  66 NW8       29.92F WCI  23
FORT KNOX      CLOUDY    32  25  74 W9        29.90F WCI  24
$$

KYZ035>037-039>044-047>052-055>060-089>105-262100-
NORTHEAST KENTUCKY

CITY           SKY/WX    TMP DP  RH WIND       PRES   REMARKS
LEXINGTON      CLOUDY    27  22  81 W9        29.88F WCI  18
COVINGTON      MOSUNNY   29  18  63 NW8       29.87F WCI  21
FRANKFORT      CLOUDY    28  21  75 W10       29.89F WCI  19
$$

KYZ054-064>069-076>088-106>120-262100-
SOUTHEAST KENTUCKY

CITY           SKY/WX    TMP DP  RH WIND       PRES   REMARKS
JACKSON        CLOUDY    25  22  88 VRB7      29.83R WCI  17
LONDON         CLOUDY    29  21  72 NW9       29.87S WCI  20
SOMERSET       CLOUDY    30  27  86 NW9       29.92R WCI  22
MIDDLESBORO    CLOUDY    30  26  86 NW6       29.86S WCI  24
MONTICELLO     CLOUDY    30  27  89 NW12      29.94S WCI  20
$$



USA.gov is the U.S. government's official web portal to all federal, state and local government web resources and services.